FENGYUN 1C DEB, 29914

Orbit data source: Space-Track

FENGYUN 1C DEB, 29914 is space debris in SSO originally from a launch on Mon, 10 May 1999 UTC launched from the Taiyaun Space Center, China (TSC). Fengyun 1C debris stems from the Chinese weather satellite Fengyun-1C, which was intentionally destroyed by a Chinese anti-satellite missile in 2007. This event dramatically increased the amount of space debris, with thousands of trackable fragments posing hazards to satellites and human spaceflight. The Fengyun 1C debris cloud has become a focal point in discussions about space sustainability and the need for international regulations to prevent the creation of new debris.

Loading next visibility...
Identifier
29914, 1999-025HL
Orbit
SSO
Country
Flag of CNCN / PRC
Related business
Manufacturer
Unknown
Mission
Spacecraft
Bus & Motor
Unknown
Mass
Unknown
Launch date (UTC)
1999-05-10 (27 years ago)
Launch vehicle
Unknown
Launch site
Taiyaun Space Center, China (TSC)
Object type
Payload
Rocket body
Debris
Shape & HBR
Unknown shape, 0.1 m
Radar Cross Section
Medium (>0.1 m² and <1 m²)

Expand to show TLE details & history
Last TLE update: 23 hours ago

TLE from 23 hours ago
0 FENGYUN 1C DEB
1 29914U 99025HL  26253.61821682  .00000005  00000-0  30458-4 0  9991
2 29914  98.8187 279.1657 0036545  77.1498  43.5699 14.03233647  5985
Epoch: 2026-09-10T14:50Z
TLE epoch observation values (Epoch: 2026-09-10T14:50:13.933Z)
Latitude
57.97993°
Longitude
-98.75866°
Altitude
873.163 km
Speed
7.431 km/s
True Right ascension
07h 33m 48s
True Declination
57° 49' 39"
Sunlit
Object was in daylight at epoch
Visualization orbit readout
Latitude
Unknown
Longitude
Unknown
Altitude
Unknown
Speed
Unknown
Apparent Right ascension
Unknown
Apparent Declination
Unknown
Sunlit
N/A
Visualization observer readout
Local Sidereal Time
06:15:42
Azimuth
Unknown
Elevation
Unknown
Doppler factor
Unknown
Orbital elements
Apogee altitude
906.329 km
Perigee altitude
853.281 km
Semi-major axis
7,257.942 km
Eccentricity
0.00365
Inclination
98.8187°
RAAN
279.1657°
Arg. of periapsis
77.1498°
True anomaly
43.85949°
Mean anomaly
43.5699°
Eccentric anomaly
43.7146°
Mean motion
3.51013 °/min
Orbital period
102.56 mins
BSTAR
0.000030458
Loading maneuver chart data...
Computing Atmospheric mass density...
Loading historical data...
Loading historical data...
Loading historical data...
Loading historical data...
Loading historical data...
Loading historical data...
Loading historical data...

Documentation

Showing up to 5 results
|